Location: Unspecified
(0.0000°N, 0.0000°E)
Time: 13:20:49
(UTC+00:00)

LightSail 2 - Pass Details

Date: 31 March 2020
Orbit: 693 x 726 km, 24.0° (Epoch: 02 April)

Event Time Altitude Azimuth Distance (km) Brightness Sun altitude
Exits shadow 05:22:51 11° 289° (WNW) 2,072 7.0 -10.3°
Maximum altitude 05:26:29 22° 337° (NNW) 1,494 6.6 -9.4°
Drops below altitude 10° 05:30:21 10° 28° (NNE) 2,142 8.1 -8.4°
Sets 05:33:16 0° 43° (NE) 3,064 9.2 -7.7°
